• In Hungary
  • List of Countries
  • For 7 days
  • Water Temperature
  • Satellite Maps
  • Weather Map
  • News
  • Weather Widgets
  • user-avatar
    Login

    Hourly Weather Uyutnyy

    Today, 15 November, Thursday

    Time Temperature Precipitation Wind Pressure Humidity
    00:00 -4°C° 0 mm 1 mps 771 mmHg 34%
    01:00 -4°C° 0 mm 1 mps 771 mmHg 35%
    02:00 -4°C° 0 mm 1 mps 771 mmHg 35%
    03:00 -4°C° 0 mm 1 mps 771 mmHg 36%
    04:00 -6°C° 0 mm 1 mps 771 mmHg 37%
    05:00 -6°C° 0 mm 1 mps 771 mmHg 37%
    06:00 -6°C° 0 mm 1 mps 771 mmHg 38%
    07:00 -6°C° 0 mm 1 mps 771 mmHg 38%
    08:00 -4°C° 0 mm 1 mps 771 mmHg 36%
    09:00 -3°C° 0 mm 1 mps 771 mmHg 33%
    10:00 -3°C° 0 mm 1 mps 772 mmHg 31%
    11:00 -2°C° 0 mm 1 mps 772 mmHg 29%
    12:00 -1°C° 0 mm 1 mps 772 mmHg 26%
    13:00 0°C° 0 mm 1 mps 772 mmHg 24%
    14:00 0°C° 0 mm 1 mps 772 mmHg 26%
    15:00 0°C° 0 mm 1 mps 772 mmHg 28%
    16:00 -1°C° 0 mm 1 mps 772 mmHg 30%
    17:00 -1°C° 0 mm 1 mps 772 mmHg 32%
    18:00 -2°C° 0 mm 1 mps 772 mmHg 34%
    19:00 -5°C° 0 mm 2 mps 772 mmHg 36%
    20:00 -5°C° 0 mm 2 mps 772 mmHg 37%
    21:00 -5°C° 0 mm 2 mps 772 mmHg 39%
    22:00 -5°C° 0 mm 2 mps 773 mmHg 40%
    23:00 -3°C° 0 mm 1 mps 773 mmHg 41%

    Tomorrow, 16 November, Friday

    Time Temperature Precipitation Wind Pressure Humidity
    00:00 -4°C° 0 mm 1 mps 773 mmHg 42%
    01:00 -4°C° 0 mm 1 mps 773 mmHg 43%
    02:00 -4°C° 0 mm 1 mps 773 mmHg 44%
    03:00 -4°C° 0 mm 1 mps 773 mmHg 44%
    04:00 -4°C° 0 mm 1 mps 773 mmHg 45%
    05:00 -4°C° 0 mm 1 mps 773 mmHg 45%
    06:00 -4°C° 0 mm 1 mps 773 mmHg 46%
    07:00 -6°C° 0 mm 1 mps 773 mmHg 46%
    08:00 -4°C° 0 mm 1 mps 773 mmHg 44%
    09:00 -3°C° 0 mm 1 mps 774 mmHg 41%
    10:00 -2°C° 0 mm 1 mps 774 mmHg 38%
    11:00 -1°C° 0 mm 1 mps 774 mmHg 35%
    12:00 0°C° 0 mm 1 mps 773 mmHg 33%
    13:00 +1°C° 0 mm 1 mps 773 mmHg 30%
    14:00 0°C° 0 mm 1 mps 773 mmHg 32%
    15:00 0°C° 0 mm 1 mps 773 mmHg 34%
    16:00 -1°C° 0 mm 1 mps 773 mmHg 35%
    17:00 -1°C° 0 mm 1 mps 773 mmHg 37%
    18:00 -2°C° 0 mm 1 mps 773 mmHg 38%
    19:00 -4°C° 0 mm 2 mps 772 mmHg 40%
    20:00 -5°C° 0 mm 2 mps 772 mmHg 40%
    21:00 -5°C° 0 mm 2 mps 772 mmHg 41%
    22:00 -5°C° 0 mm 2 mps 772 mmHg 41%
    23:00 -3°C° 0 mm 1 mps 772 mmHg 41%

    Day after tomorrow, 17 November, Saturday

    Time Temperature Precipitation Wind Pressure Humidity
    00:00 -3°C° 0 mm 1 mps 771 mmHg 41%
    01:00 -4°C° 0 mm 1 mps 771 mmHg 41%
    02:00 -4°C° 0 mm 1 mps 771 mmHg 40%
    03:00 -4°C° 0 mm 1 mps 771 mmHg 40%
    04:00 -4°C° 0 mm 1 mps 770 mmHg 39%
    05:00 -4°C° 0 mm 1 mps 770 mmHg 38%
    06:00 -4°C° 0 mm 1 mps 770 mmHg 37%
    07:00 -4°C° 0 mm 1 mps 769 mmHg 36%
    08:00 -3°C° 0 mm 1 mps 769 mmHg 33%
    09:00 -2°C° 0 mm 1 mps 769 mmHg 30%
    10:00 -2°C° 0 mm 1 mps 769 mmHg 27%
    11:00 -3°C° 0 mm 2 mps 768 mmHg 25%
    12:00 -2°C° 0 mm 2 mps 767 mmHg 23%
    13:00 +1°C° 0 mm 2 mps 767 mmHg 20%
    14:00 -1°C° 0 mm 2 mps 767 mmHg 22%
    15:00 -2°C° 0 mm 2 mps 766 mmHg 23%
    16:00 -2°C° 0 mm 2 mps 766 mmHg 25%
    17:00 -3°C° 0 mm 2 mps 766 mmHg 26%
    18:00 -3°C° 0 mm 2 mps 765 mmHg 27%
    19:00 -4°C° 0 mm 2 mps 765 mmHg 28%
    20:00 -4°C° 0 mm 2 mps 765 mmHg 28%
    21:00 -4°C° 0 mm 2 mps 764 mmHg 28%
    22:00 -4°C° 0 mm 2 mps 764 mmHg 28%
    23:00 -4°C° 0 mm 2 mps 764 mmHg 28%

    18 November, Sunday

    Time Temperature Precipitation Wind Pressure Humidity
    00:00 -4°C° 0 mm 2 mps 763 mmHg 28%
    01:00 -4°C° 0 mm 2 mps 763 mmHg 27%
    02:00 -5°C° 0 mm 2 mps 763 mmHg 28%
    03:00 -5°C° 0 mm 2 mps 763 mmHg 28%
    04:00 -5°C° 0 mm 2 mps 763 mmHg 28%
    05:00 -5°C° 0 mm 2 mps 763 mmHg 28%
    06:00 -5°C° 0 mm 2 mps 762 mmHg 28%
    07:00 -3°C° 0 mm 1 mps 762 mmHg 28%
    08:00 -3°C° 0 mm 1 mps 762 mmHg 27%
    09:00 -2°C° 0 mm 1 mps 762 mmHg 25%
    10:00 -1°C° 0 mm 1 mps 762 mmHg 23%
    11:00 0°C° 0 mm 1 mps 762 mmHg 22%
    12:00 +1°C° 0 mm 1 mps 762 mmHg 21%
    13:00 +2°C° 0 mm 1 mps 762 mmHg 19%
    14:00 +1°C° 0 mm 1 mps 762 mmHg 21%
    15:00 0°C° 0 mm 1 mps 762 mmHg 23%
    16:00 -1°C° 0 mm 0 mps 762 mmHg 26%
    17:00 -1°C° 0 mm 1 mps 762 mmHg 26%
    18:00 -1°C° 0 mm 1 mps 762 mmHg 26%
    19:00 -1°C° 0 mm 1 mps 762 mmHg 26%
    20:00 -1°C° 0 mm 1 mps 762 mmHg 27%
    21:00 -1°C° 0 mm 1 mps 763 mmHg 27%
    22:00 -1°C° 0 mm 1 mps 763 mmHg 28%
    23:00 -1°C° 0 mm 1 mps 763 mmHg 28%

    19 November, Monday

    Time Temperature Precipitation Wind Pressure Humidity
    00:00 -1°C° 0 mm 1 mps 763 mmHg 29%
    01:00 -1°C° 0 mm 1 mps 763 mmHg 30%
    02:00 -1°C° 0 mm 1 mps 763 mmHg 31%
    03:00 -2°C° 0 mm 1 mps 763 mmHg 31%
    04:00 -2°C° 0 mm 1 mps 763 mmHg 32%
    05:00 -2°C° 0 mm 1 mps 763 mmHg 33%
    06:00 -4°C° 0 mm 2 mps 763 mmHg 34%
    07:00 -4°C° 0 mm 2 mps 763 mmHg 34%
    08:00 -3°C° 0 mm 2 mps 764 mmHg 33%
    09:00 -3°C° 0 mm 2 mps 764 mmHg 32%
    10:00 -2°C° 0 mm 2 mps 764 mmHg 32%
    11:00 -2°C° 0 mm 2 mps 764 mmHg 30%
    12:00 -1°C° 0 mm 2 mps 764 mmHg 29%
    13:00 +2°C° 0 mm 1 mps 764 mmHg 28%
    14:00 -1°C° 0 mm 2 mps 764 mmHg 30%
    15:00 -1°C° 0 mm 2 mps 764 mmHg 31%
    16:00 -2°C° 0 mm 2 mps 764 mmHg 33%
    17:00 -2°C° 0 mm 2 mps 764 mmHg 34%
    18:00 -2°C° 0 mm 2 mps 765 mmHg 36%
    19:00 -3°C° 0 mm 2 mps 765 mmHg 37%
    20:00 -3°C° 0 mm 2 mps 765 mmHg 39%
    21:00 -3°C° 0 mm 2 mps 765 mmHg 40%
    22:00 -3°C° 0 mm 2 mps 765 mmHg 42%
    23:00 -4°C° 0 mm 2 mps 765 mmHg 45%

    20 November, Tuesday

    Time Temperature Precipitation Wind Pressure Humidity
    00:00 -4°C° 0 mm 2 mps 765 mmHg 47%
    01:00 -2°C° 0 mm 1 mps 765 mmHg 50%
    02:00 -4°C° 0 mm 2 mps 765 mmHg 53%
    03:00 -5°C° 0 mm 2 mps 765 mmHg 57%
    04:00 -5°C° 0 mm 2 mps 765 mmHg 60%
    05:00 -5°C° 0 mm 2 mps 765 mmHg 64%
    06:00 -5°C° 0 mm 2 mps 765 mmHg 68%
    07:00 -5°C° 0 mm 2 mps 765 mmHg 73%
    08:00 -4°C° 0 mm 2 mps 765 mmHg 72%
    09:00 -4°C° 0 mm 2 mps 765 mmHg 72%
    10:00 -3°C° 0 mm 2 mps 765 mmHg 71%
    11:00 -2°C° 0 mm 2 mps 765 mmHg 69%
    12:00 -2°C° 0 mm 2 mps 765 mmHg 67%
    13:00 +1°C° 0 mm 1 mps 765 mmHg 65%
    14:00 +1°C° 0 mm 1 mps 765 mmHg 68%
    15:00 0°C° 0 mm 1 mps 764 mmHg 72%
    16:00 0°C° 0 mm 1 mps 764 mmHg 75%
    17:00 -1°C° 0 mm 1 mps 764 mmHg 78%
    18:00 -1°C° 0 mm 1 mps 764 mmHg 80%
    19:00 -2°C° 0 mm 1 mps 764 mmHg 83%
    20:00 -2°C° 0 mm 1 mps 764 mmHg 84%
    21:00 -2°C° 0 mm 1 mps 764 mmHg 85%
    22:00 -2°C° 0 mm 1 mps 764 mmHg 86%
    23:00 -2°C° 0 mm 1 mps 764 mmHg 86%
    Show more